Погода в Провиденсе

США     41°49′24″N   71°24′50″W
темп.,
°C
ветер,
м/с
пор.,
м/с
влажн.,
%
обл.,
%
осадки,
мм/ч
давл.,
гПа
погр.,
м
19 апреля, пн
пн1923:00+8з227456 0.0 101046
02:00+7зсз227840 0.0 101031
05:00+6з247740 0.0 101179
08:00+10сз25584 0.0 1011203
11:00+16з24355 0.0 10111658
14:00+17ююз3435100 0.0 10092272
17:00+16ююз3442100 0.0 10091174
20:00+11зюз2765100 0.0 1011268
20 апреля, вт
вт2023:00+10зюз117997 0.0 101128
02:00+9з24825 0.0 1011100
05:00+8зюз25830 0.0 1011110
08:00+12зюз37645 0.0 1012229
11:00+18юз5104033 0.0 10121635
14:00+20з712369 0.0 10112337
17:00+19з6124214 0.0 10122132
20:00+14з385649 0.0 1014813
21 апреля, ср
ср2123:00+12с116117 0.0 1016175
02:00+11в1262100 0.0 1015144
05:00+10ююв2783100 0.0 1013288
08:00+12ю51375100 0.0 1012876
11:00+17ююз713568 0.0 10081653
14:00+18ююз8145495 0.3 10051846
17:00+17ю7156446 0.1 10001593
20:00+10з4118578 4.6 1000906
22 апреля, чт
чт2223:00+4зсз613745 0.2 1001823
02:00+1з613715 0.2 1002863
05:00+1з614685 0.0 10031184
08:00+3з614575 0.0 10051780
11:00+5з81338100 0.0 10062352
14:00+7з81435100 0.0 10062867
17:00+8зсз716365 0.0 10072612
20:00+4з6134913 0.0 10101604
23 апреля, пт
пт2323:00+3з51454100 0.0 10111219
02:00+3зюз5136275 0.0 10111133
05:00+2зюз6156775 0.0 10101014
08:00+5з716575 0.0 10101234
11:00+8з7125446 0.1 10101755
14:00+12зсз711351 0.1 10101923
17:00+13з611370 0.0 10101700
20:00+9з613646 0.0 10131217